Retour au catalogue

STARLINK-37926

ActifCommunicationsSSO
NORAD 69695·PAYLOAD·🇺🇸 United States

Lancé Jun 25, 2026 depuis Vandenberg Space Force Base

Loading…

Prochains Passages (prochaines 24 heures)

TLE

FraisSource: CelesTrak SupGP

Époque: Sep 14, 2026, 22:46 UTC

1 69695C 26145U   26257.94909722  .00091446  00000+0  28393-2 0  2574
2 69695  97.2846 104.7297 0001662  92.9166 312.6345 15.33385954    12

Suivez STARLINK-37926 en temps réel avec AllMySat

Download on the App Store